******** Week 362 almanac for PRN-1 ******** ID: 1 Health: 0 Eccentricity: 0.001634597778 Time of Applicability(s): 589824 Orbital Inclination(rad): 0.9580393121 Rate of Right Ascen(r/s): -8.103194673e-09 SQRT(A) (m 1/2): 5153.571289 Right Ascen at Week(rad): 2.883297779 Argument of Perigee(rad): 0.1142111614 Mean Anom(rad): 2.817648195 Af0(s): 0.0002479588501 Af1(s/s): -7.275958e-12 week: 362 ******** Week 362 almanac for PRN-2 ******** ID: 2 Health: 0 Eccentricity: 0.01686286926 Time of Applicability(s): 589824 Orbital Inclination(rad): 0.9631865367 Rate of Right Ascen(r/s): -8.114623721e-09 SQRT(A) (m 1/2): 5153.53418 Right Ascen at Week(rad): 2.720892806 Argument of Perigee(rad): -0.80121397 Mean Anom(rad): -1.98024224 Af0(s): 4.974250488e-05 Af1(s/s): 7.275958e-12 week: 362 ******** Week 362 almanac for PRN-3 ******** ID: 3 Health: 0 Eccentricity: 0.00657081604 Time of Applicability(s): 589824 Orbital Inclination(rad): 0.9936983733 Rate of Right Ascen(r/s): -7.417451824e-09 SQRT(A) (m 1/2): 5153.580566 Right Ascen at Week(rad): -2.412647306 Argument of Perigee(rad): 1.202840925 Mean Anom(rad): 0.7137658299 Af0(s): 0.0004205502686 Af1(s/s): -1.455192e-11 week: 362 ******** Week 362 almanac for PRN-4 ******** ID: 4 Health: 0 Eccentricity: 0.003718852997 Time of Applicability(s): 589824 Orbital Inclination(rad): 0.970448977 Rate of Right Ascen(r/s): -7.966046103e-09 SQRT(A) (m 1/2): 5153.665039 Right Ascen at Week(rad): -1.342345917 Argument of Perigee(rad): -2.872961385 Mean Anom(rad): -2.605337164 Af0(s): 3.919106445e-05 Af1(s/s): 0 week: 362 ******** Week 362 almanac for PRN-5 ******** ID: 5 Health: 0 Eccentricity: 0.005433559418 Time of Applicability(s): 589824 Orbital Inclination(rad): 0.980252073 Rate of Right Ascen(r/s): -7.554600394e-09 SQRT(A) (m 1/2): 5153.675781 Right Ascen at Week(rad): -2.472619364 Argument of Perigee(rad): 1.416821508 Mean Anom(rad): -1.934039683 Af0(s): -0.0001823891846 Af1(s/s): 0 week: 362 ******** Week 362 almanac for PRN-6 ******** ID: 6 Health: 0 Eccentricity: 0.003834247589 Time of Applicability(s): 589824 Orbital Inclination(rad): 0.9868853415 Rate of Right Ascen(r/s): -7.863184676e-09 SQRT(A) (m 1/2): 5153.602051 Right Ascen at Week(rad): 2.834369559 Argument of Perigee(rad): -0.5521757843 Mean Anom(rad): 2.01709523 Af0(s): -0.0004838589111 Af1(s/s): 0 week: 362 ******** Week 362 almanac for PRN-7 ******** ID: 7 Health: 0 Eccentricity: 0.02061080933 Time of Applicability(s): 589824 Orbital Inclination(rad): 0.9512023118 Rate of Right Ascen(r/s): -7.954617056e-09 SQRT(A) (m 1/2): 5153.55957 Right Ascen at Week(rad): -0.3335662946 Argument of Perigee(rad): -1.985954596 Mean Anom(rad): 1.164885761 Af0(s): -0.0001288783081 Af1(s/s): -3.637979e-12 week: 362 ******** Week 362 almanac for PRN-8 ******** ID: 8 Health: 0 Eccentricity: 0.01158285141 Time of Applicability(s): 589824 Orbital Inclination(rad): 0.9429751414 Rate of Right Ascen(r/s): -8.423208003e-09 SQRT(A) (m 1/2): 5153.638184 Right Ascen at Week(rad): 1.713057316 Argument of Perigee(rad): 0.5313187389 Mean Anom(rad): -2.299888483 Af0(s): 0.0003753298096 Af1(s/s): -7.275958e-12 week: 362 ******** Week 362 almanac for PRN-9 ******** ID: 9 Health: 0 Eccentricity: 0.003341197968 Time of Applicability(s): 589824 Orbital Inclination(rad): 0.96464262 Rate of Right Ascen(r/s): -8.034620388e-09 SQRT(A) (m 1/2): 5153.706543 Right Ascen at Week(rad): -1.406746894 Argument of Perigee(rad): 2.059909248 Mean Anom(rad): -1.702717552 Af0(s): 0.0006044468018 Af1(s/s): -3.637979e-12 week: 362 ******** Week 362 almanac for PRN-10 ******** ID: 10 Health: 0 Eccentricity: 0.01092576981 Time of Applicability(s): 589824 Orbital Inclination(rad): 0.9932249964 Rate of Right Ascen(r/s): -7.383164681e-09 SQRT(A) (m 1/2): 5153.613281 Right Ascen at Week(rad): -2.415156503 Argument of Perigee(rad): -2.255879039 Mean Anom(rad): -0.2796234257 Af0(s): -0.0004665244019 Af1(s/s): 0 week: 362 ******** Week 362 almanac for PRN-11 ******** ID: 11 Health: 0 Eccentricity: 0.002216339111 Time of Applicability(s): 589824 Orbital Inclination(rad): 0.9637617795 Rate of Right Ascen(r/s): -8.080336578e-09 SQRT(A) (m 1/2): 5153.533691 Right Ascen at Week(rad): 2.852738005 Argument of Perigee(rad): -2.309418189 Mean Anom(rad): 3.131880564 Af0(s): -0.0003157895386 Af1(s/s): 1.455192e-11 week: 362 ******** Week 362 almanac for PRN-12 ******** ID: 12 Health: 0 Eccentricity: 0.00898361206 Time of Applicability(s): 589824 Orbital Inclination(rad): 0.9593156321 Rate of Right Ascen(r/s): -7.748894201e-09 SQRT(A) (m 1/2): 5153.720703 Right Ascen at Week(rad): 0.7839297217 Argument of Perigee(rad): 1.566850147 Mean Anom(rad): 0.4852498803 Af0(s): -0.0004800905395 Af1(s/s): 0 week: 362 ******** Week 362 almanac for PRN-13 ******** ID: 13 Health: 0 Eccentricity: 0.01004838943 Time of Applicability(s): 589824 Orbital Inclination(rad): 0.9760516021 Rate of Right Ascen(r/s): -7.943188008e-09 SQRT(A) (m 1/2): 5153.611816 Right Ascen at Week(rad): -1.231322559 Argument of Perigee(rad): 0.9944498595 Mean Anom(rad): -2.536569435 Af0(s): 0.0005396308105 Af1(s/s): 0 week: 362 ******** Week 362 almanac for PRN-14 ******** ID: 14 Health: 0 Eccentricity: 0.006826400757 Time of Applicability(s): 589824 Orbital Inclination(rad): 0.94268752 Rate of Right Ascen(r/s): -7.874613723e-09 SQRT(A) (m 1/2): 5153.609375 Right Ascen at Week(rad): 0.7289985288 Argument of Perigee(rad): -2.742454674 Mean Anom(rad): 0.3420443847 Af0(s): 0.0005848512695 Af1(s/s): 0 week: 362 ******** Week 362 almanac for PRN-15 ******** ID: 15 Health: 0 Eccentricity: 0.01663064957 Time of Applicability(s): 589824 Orbital Inclination(rad): 0.942579662 Rate of Right Ascen(r/s): -8.206056101e-09 SQRT(A) (m 1/2): 5153.640625 Right Ascen at Week(rad): -1.551311101 Argument of Perigee(rad): 1.504751264 Mean Anom(rad): 2.989205371 Af0(s): 0.0003127748413 Af1(s/s): 3.637979e-12 week: 362 ******** Week 362 almanac for PRN-16 ******** ID: 16 Health: 0 Eccentricity: 0.01502656937 Time of Applicability(s): 589824 Orbital Inclination(rad): 0.9584287994 Rate of Right Ascen(r/s): -7.760323248e-09 SQRT(A) (m 1/2): 5153.614258 Right Ascen at Week(rad): 0.8008705471 Argument of Perigee(rad): 0.93181281 Mean Anom(rad): -1.263755617 Af0(s): 0.0001816355103 Af1(s/s): 7.275958e-12 week: 362 ******** Week 362 almanac for PRN-17 ******** ID: 17 Health: 0 Eccentricity: 0.01262235641 Time of Applicability(s): 589824 Orbital Inclination(rad): 0.9586385234 Rate of Right Ascen(r/s): -8.308917528e-09 SQRT(A) (m 1/2): 5153.547852 Right Ascen at Week(rad): 1.818108785 Argument of Perigee(rad): -1.119110891 Mean Anom(rad): -2.353665071 Af0(s): -7.386008301e-05 Af1(s/s): -1.091394e-11 week: 362 ******** Week 362 almanac for PRN-18 ******** ID: 18 Health: 0 Eccentricity: 0.005791187286 Time of Applicability(s): 589824 Orbital Inclination(rad): 0.971833155 Rate of Right Ascen(r/s): -8.000333246e-09 SQRT(A) (m 1/2): 5153.587402 Right Ascen at Week(rad): 2.82906654 Argument of Perigee(rad): -2.866199661 Mean Anom(rad): 1.94209046 Af0(s): -0.0003135285156 Af1(s/s): 1.091394e-11 week: 362 ******** Week 362 almanac for PRN-19 ******** ID: 19 Health: 0 Eccentricity: 0.01121759415 Time of Applicability(s): 589824 Orbital Inclination(rad): 0.9578116118 Rate of Right Ascen(r/s): -8.320346576e-09 SQRT(A) (m 1/2): 5153.669434 Right Ascen at Week(rad): 1.862007375 Argument of Perigee(rad): 2.938967125 Mean Anom(rad): -0.5597662927 Af0(s): 0.0005486749023 Af1(s/s): 0 week: 362 ******** Week 362 almanac for PRN-20 ******** ID: 20 Health: 0 Eccentricity: 0.002247333527 Time of Applicability(s): 589824 Orbital Inclination(rad): 0.9600406777 Rate of Right Ascen(r/s): -8.068907531e-09 SQRT(A) (m 1/2): 5153.695312 Right Ascen at Week(rad): -1.401225163 Argument of Perigee(rad): -1.971831561 Mean Anom(rad): 0.4465666748 Af0(s): 5.200352783e-05 Af1(s/s): 2.182787e-11 week: 362 ******** Week 362 almanac for PRN-21 ******** ID: 21 Health: 0 Eccentricity: 0.0007886886597 Time of Applicability(s): 589824 Orbital Inclination(rad): 0.963096655 Rate of Right Ascen(r/s): -7.726036106e-09 SQRT(A) (m 1/2): 5153.730957 Right Ascen at Week(rad): -2.406975397 Argument of Perigee(rad): -0.2697589106 Mean Anom(rad): 0.1410520802 Af0(s): 0.0003240799561 Af1(s/s): 3.637979e-12 week: 362 ******** Week 362 almanac for PRN-22 ******** ID: 22 Health: 0 Eccentricity: 0.01204919815 Time of Applicability(s): 589824 Orbital Inclination(rad): 0.957871533 Rate of Right Ascen(r/s): -7.737465153e-09 SQRT(A) (m 1/2): 5153.581543 Right Ascen at Week(rad): 0.8042253811 Argument of Perigee(rad): -0.9934637825 Mean Anom(rad): -1.707024757 Af0(s): -2.411757812e-05 Af1(s/s): 7.275958e-12 week: 362 ******** Week 362 almanac for PRN-23 ******** ID: 23 Health: 0 Eccentricity: 0.006057262421 Time of Applicability(s): 589824 Orbital Inclination(rad): 0.9882275747 Rate of Right Ascen(r/s): -7.440309919e-09 SQRT(A) (m 1/2): 5153.668945 Right Ascen at Week(rad): -2.447322537 Argument of Perigee(rad): -2.739387461 Mean Anom(rad): 0.7974086041 Af0(s): 0.0004951640259 Af1(s/s): 3.637979e-12 week: 362 ******** Week 362 almanac for PRN-24 ******** ID: 24 Health: 0 Eccentricity: 0.01793718338 Time of Applicability(s): 589824 Orbital Inclination(rad): 0.9351494425 Rate of Right Ascen(r/s): -8.228914196e-09 SQRT(A) (m 1/2): 5153.583008 Right Ascen at Week(rad): -0.4423856783 Argument of Perigee(rad): 1.137802536 Mean Anom(rad): 2.147121823 Af0(s): -5.652557373e-05 Af1(s/s): 1.818989e-11 week: 362 ******** Week 362 almanac for PRN-25 ******** ID: 25 Health: 0 Eccentricity: 0.01291561127 Time of Applicability(s): 589824 Orbital Inclination(rad): 0.9477388708 Rate of Right Ascen(r/s): -7.840326581e-09 SQRT(A) (m 1/2): 5153.671875 Right Ascen at Week(rad): 0.6899089832 Argument of Perigee(rad): 1.159537052 Mean Anom(rad): 0.3617037567 Af0(s): 0.0003444291626 Af1(s/s): -3.637979e-12 week: 362 ******** Week 362 almanac for PRN-26 ******** ID: 26 Health: 0 Eccentricity: 0.01101064682 Time of Applicability(s): 589824 Orbital Inclination(rad): 0.9285461346 Rate of Right Ascen(r/s): -7.977475151e-09 SQRT(A) (m 1/2): 5153.678223 Right Ascen at Week(rad): 0.6150416576 Argument of Perigee(rad): 0.7117322567 Mean Anom(rad): -0.4588407682 Af0(s): -0.0002713227539 Af1(s/s): -3.637979e-12 week: 362 ******** Week 362 almanac for PRN-27 ******** ID: 27 Health: 0 Eccentricity: 0.01437520981 Time of Applicability(s): 589824 Orbital Inclination(rad): 0.9520711681 Rate of Right Ascen(r/s): -8.343204671e-09 SQRT(A) (m 1/2): 5153.612793 Right Ascen at Week(rad): 1.745269415 Argument of Perigee(rad): 0.8880164601 Mean Anom(rad): -2.195547454 Af0(s): -6.029394531e-05 Af1(s/s): -1.455192e-11 week: 362 ******** Week 362 almanac for PRN-28 ******** ID: 28 Health: 0 Eccentricity: 0.0004386901855 Time of Applicability(s): 589824 Orbital Inclination(rad): 0.9621199407 Rate of Right Ascen(r/s): -7.908900866e-09 SQRT(A) (m 1/2): 5153.749512 Right Ascen at Week(rad): -0.3590934427 Argument of Perigee(rad): -0.1221716828 Mean Anom(rad): 1.600623191 Af0(s): -0.0004529582642 Af1(s/s): 7.275958e-12 week: 362 ******** Week 362 almanac for PRN-29 ******** ID: 29 Health: 0 Eccentricity: 0.003434658051 Time of Applicability(s): 589824 Orbital Inclination(rad): 0.9612930292 Rate of Right Ascen(r/s): -8.286059433e-09 SQRT(A) (m 1/2): 5153.695312 Right Ascen at Week(rad): 1.834894564 Argument of Perigee(rad): 2.7445242 Mean Anom(rad): -2.339708692 Af0(s): -0.0002803668457 Af1(s/s): 7.275958e-12 week: 362 ******** Week 362 almanac for PRN-30 ******** ID: 30 Health: 0 Eccentricity: 0.008135318756 Time of Applicability(s): 589824 Orbital Inclination(rad): 0.9364617152 Rate of Right Ascen(r/s): -8.160339911e-09 SQRT(A) (m 1/2): 5153.6875 Right Ascen at Week(rad): -0.3428360926 Argument of Perigee(rad): -2.305761877 Mean Anom(rad): 0.9716978085 Af0(s): 0.0001266172852 Af1(s/s): 1.455192e-11 week: 362 ******** Week 362 almanac for PRN-31 ******** ID: 31 Health: 0 Eccentricity: 0.01083660126 Time of Applicability(s): 589824 Orbital Inclination(rad): 0.9549713505 Rate of Right Ascen(r/s): -7.966046103e-09 SQRT(A) (m 1/2): 5153.520508 Right Ascen at Week(rad): -0.3092694021 Argument of Perigee(rad): 0.9388052307 Mean Anom(rad): 0.07624139184 Af0(s): -0.0001266172852 Af1(s/s): 3.637979e-12 week: 362 ******** Week 362 almanac for PRN-32 ******** ID: 32 Health: 0 Eccentricity: 0.009370326996 Time of Applicability(s): 589824 Orbital Inclination(rad): 0.9676746289 Rate of Right Ascen(r/s): -8.000333246e-09 SQRT(A) (m 1/2): 5153.679688 Right Ascen at Week(rad): -1.389673119 Argument of Perigee(rad): -1.989697419 Mean Anom(rad): -1.630914817 Af0(s): -2.939329834e-05 Af1(s/s): 1.818989e-11 week: 362